Location: Paderno d�Adda
(45.6667°N, 9.4333°E)
Time: 16:47:53
(UTC+00:00)

Cosmos 2285 Rocket - Pass Details

Date: 19 September 2020
Orbit: 970 x 1000 km, 74.0° (Epoch: 20 October)

Event Time Altitude Azimuth Distance (km) Brightness Sun altitude
Rises 19:59:54 0° 207° (SSW) 3,652 7.0 -26.5°
Reaches altitude 10° 20:02:26 10° 210° (SSW) 2,711 6.3 -26.8°
Maximum altitude 20:08:42 70° 294° (WNW) 1,038 4.2 -27.7°
Drops below altitude 10° 20:15:02 10° 18° (NNE) 2,745 6.5 -28.6°
Sets 20:17:38 0° 21° (NNE) 3,701 7.2 -29.0°
